カタログに戻る

STARLINK-32779

運用中通信VLEO
NORAD 63030·PAYLOAD·🇺🇸 United States

打ち上げ Feb 18, 2025 から Cape Canaveral Space Force Station

Loading…

次のパス (今後24時間)

TLE

最新Source: CelesTrak SupGP

元期: Sep 15, 2026, 02:25 UTC

1 63030C 25034B   26258.10118056  .00026184  00000+0  77365-3 0  2580
2 63030  53.1572 108.6321 0001245  82.0108 203.8302 15.34376078    12

AllMySatでSTARLINK-32779をリアルタイム追跡

Download on the App Store